Weather History for Rockwall, TX

Change the Weather History Date:

Friday, February 7, 2014

  Actual Average (KDFW) Record (KDFW)
Temperature  
Mean Temperature 27 °F 48 °F  
Max Temperature 32 °F 59 °F 88 °F (1932)
Min Temperature 22 °F 38 °F 7 °F (1933)
Degree Days  
Heating Degree Days 38 17  
Month to date heating degree days 122  
Since 1 July heating degree days 1627  
Cooling Degree Days 0 0  
Month to date cooling degree days 0  
Year to date cooling degree days 2  
Moisture  
Dew Point 23 °F    
Average Humidity 82    
Maximum Humidity 98    
Minimum Humidity 72    
Precipitation  
Precipitation 0.00 in 0.09 in 1.53 in (1973)
Month to date precipitation 0.57  
Year to date precipitation 2.70  
Snow  
Snow 0.00 in 0.00 in 3.70 in (1978)
Month to date snowfall 0.1  
Since 1 July snowfall 0.7  
Snow Depth -    
Sea Level Pressure  
Sea Level Pressure 30.30 in    
Wind  
Wind Speed 4 mph (NE)    
Max Wind Speed 7 mph    
Max Gust Speed -    
Visibility 9 miles    
Events Snow    
T = Trace of Precipitation, MM = Missing Value Source: NWS Daily Summary

Daily Weather History Graph

Daily Weather History Graph

Search for Another Location

Airport:

Trip Planner

Search our weather history database for the weather conditions in past years. The results will help you decide how hot, cold, wet, or windy it might be!

Date:

Astronomy

Feb. 07, 2014 Rise Set
Actual Time 7:16 AM CST 6:03 PM CST
Civil Twilight 6:50 AM CST 6:29 PM CST
Nautical Twilight 6:21 AM CST 6:58 PM CST
Astronomical Twilight 5:52 AM CST 7:27 PM CST
Moon 12:19 PM CST (2/7) 1:30 AM CST (2/7)
Length of Visible Light 11h 38m
Length of Day
10h 47m
First Quarter, 59% of the Moon is Illuminated
Feb 7
First Quarter
Feb 14
Full
Feb 22
Last Quarter
Mar 1
New
Mar 8
First Quarter

Hourly Weather History & Observations

Time (CST) Temp. Windchill Dew Point Humidity Pressure Visibility Wind Dir Wind Speed Gust Speed Precip Events Conditions
12:15 AM 22.8 °F 16.7 °F 16.7 °F 77% 30.40 in 10.0 mi NNW 4.6 mph - N/A   Overcast
12:35 AM 22.8 °F 16.7 °F 16.7 °F 77% 30.40 in 10.0 mi NNW 4.6 mph - N/A   Overcast
12:55 AM 22.6 °F 16.5 °F 16.5 °F 77% 30.40 in 10.0 mi North 4.6 mph - N/A   Overcast
1:15 AM 22.8 °F 16.7 °F 16.9 °F 78% 30.39 in 10.0 mi NNW 4.6 mph - N/A   Overcast
1:35 AM 22.6 °F 16.5 °F 16.3 °F 77% 30.39 in 10.0 mi NW 4.6 mph - N/A   Overcast
1:55 AM 22.6 °F 15.3 °F 16.3 °F 77% 30.38 in 10.0 mi NNW 5.8 mph - N/A   Overcast
2:15 AM 22.8 °F 16.7 °F 16.3 °F 76% 30.38 in 10.0 mi NNW 4.6 mph - N/A   Overcast
2:35 AM 22.8 °F 15.5 °F 16.3 °F 76% 30.36 in 10.0 mi North 5.8 mph - N/A   Overcast
2:55 AM 23.0 °F 15.8 °F 16.9 °F 77% 30.35 in 10.0 mi North 5.8 mph - N/A   Overcast
3:15 AM 23.0 °F 15.8 °F 17.1 °F 78% 30.35 in 10.0 mi North 5.8 mph - N/A   Overcast
3:35 AM 23.0 °F 14.7 °F 16.5 °F 76% 30.35 in 10.0 mi North 6.9 mph - N/A   Overcast
3:55 AM 23.0 °F 18.4 °F 17.1 °F 78% 30.36 in 10.0 mi North 3.5 mph - N/A   Overcast
4:15 AM 23.0 °F 15.8 °F 17.1 °F 78% 30.35 in 10.0 mi North 5.8 mph - N/A   Overcast
4:35 AM 23.0 °F 15.8 °F 17.1 °F 78% 30.35 in 10.0 mi North 5.8 mph - N/A   Overcast
4:55 AM 23.0 °F 17.0 °F 17.2 °F 79% 30.35 in 10.0 mi North 4.6 mph - N/A   Overcast
5:15 AM 23.0 °F 17.0 °F 17.2 °F 79% 30.36 in 10.0 mi NNW 4.6 mph - N/A   Overcast
5:35 AM 23.4 °F 16.2 °F 17.2 °F 77% 30.35 in 10.0 mi North 5.8 mph - N/A   Overcast
5:55 AM 23.5 °F 16.4 °F 17.6 °F 78% 30.34 in 10.0 mi North 5.8 mph - N/A   Overcast
6:15 AM 23.5 °F 15.4 °F 18.0 °F 79% 30.32 in 10.0 mi NE 6.9 mph - N/A   Overcast
6:35 AM 23.7 °F 17.8 °F 18.0 °F 79% 30.33 in 10.0 mi NNE 4.6 mph - N/A   Overcast
6:55 AM 23.7 °F 15.6 °F 18.5 °F 80% 30.32 in 10.0 mi NNE 6.9 mph - N/A   Mostly Cloudy
7:15 AM 23.7 °F 17.8 °F 18.1 °F 79% 30.34 in 10.0 mi North 4.6 mph - N/A   Overcast
7:35 AM 23.7 °F 17.8 °F 18.3 °F 80% 30.34 in 10.0 mi NE 4.6 mph - N/A   Overcast
7:55 AM 23.9 °F - 18.7 °F 80% 30.36 in 10.0 mi Calm Calm - N/A   Overcast
8:15 AM 24.4 °F 18.6 °F 18.5 °F 78% 30.35 in 10.0 mi North 4.6 mph - N/A   Overcast
8:35 AM 24.8 °F 20.5 °F 19.2 °F 79% 30.35 in 10.0 mi NE 3.5 mph - N/A   Overcast
8:55 AM 25.3 °F 21.1 °F 19.2 °F 78% 30.35 in 10.0 mi North 3.5 mph - N/A   Overcast
9:15 AM 25.7 °F 21.5 °F 19.4 °F 77% 30.36 in 10.0 mi North 3.5 mph - N/A   Overcast
9:35 AM 26.2 °F 22.1 °F 19.9 °F 77% 30.37 in 10.0 mi North 3.5 mph - N/A   Overcast
9:55 AM 26.8 °F 21.4 °F 20.7 °F 78% 30.37 in 10.0 mi North 4.6 mph - N/A   Overcast
10:15 AM 27.3 °F 22.0 °F 20.8 °F 77% 30.37 in 10.0 mi North 4.6 mph - N/A   Overcast
10:35 AM 28.2 °F 24.4 °F 21.2 °F 75% 30.38 in 10.0 mi NNE 3.5 mph - N/A   Overcast
10:55 AM 28.2 °F - 21.2 °F 75% 30.36 in 10.0 mi Calm Calm - N/A   Overcast
11:15 AM 29.3 °F 24.3 °F 22.6 °F 76% 30.35 in 10.0 mi ENE 4.6 mph - N/A   Overcast
11:35 AM 29.3 °F 23.2 °F 22.3 °F 75% 30.35 in 10.0 mi ENE 5.8 mph - N/A   Overcast
11:55 AM 30.4 °F 26.9 °F 23.2 °F 75% 30.33 in 10.0 mi ENE 3.5 mph - N/A   Overcast
12:15 PM 29.8 °F 26.3 °F 23.0 °F 76% 30.33 in 10.0 mi ESE 3.5 mph - N/A   Overcast
12:35 PM 30.9 °F 27.5 °F 23.5 °F 74% 30.32 in 10.0 mi ESE 3.5 mph - N/A   Overcast
12:55 PM 30.9 °F - 23.4 °F 74% 30.30 in 10.0 mi Calm Calm - N/A   Overcast
1:15 PM 30.9 °F 27.5 °F 23.4 °F 74% 30.28 in 10.0 mi ESE 3.5 mph - N/A   Overcast
1:35 PM 31.6 °F 28.3 °F 24.1 °F 74% 30.26 in 10.0 mi SSE 3.5 mph - N/A   Overcast
1:55 PM 31.8 °F 28.5 °F 24.3 °F 74% 30.26 in 10.0 mi East 3.5 mph - N/A   Overcast
2:15 PM 32.0 °F - 24.3 °F 73% 30.27 in 10.0 mi Calm Calm - N/A   Overcast
2:35 PM 32.0 °F - 23.9 °F 72% 30.26 in 10.0 mi Calm Calm - N/A   Overcast
2:55 PM 32.0 °F - 24.8 °F 75% 30.25 in 10.0 mi Calm Calm - N/A   Overcast
3:15 PM 32.0 °F - 24.8 °F 75% 30.25 in 10.0 mi Calm Calm - N/A   Overcast
3:35 PM 32.0 °F - 25.2 °F 76% 30.24 in 10.0 mi Calm Calm - N/A   Overcast
3:55 PM 32.0 °F - 26.1 °F 79% 30.24 in 10.0 mi Calm Calm - N/A   Overcast
4:15 PM 31.8 °F - 26.1 °F 79% 30.24 in 7.0 mi Calm Calm - N/A Snow Light Snow
4:35 PM 31.8 °F - 26.2 °F 80% 30.24 in 3.0 mi Calm Calm - N/A Snow Light Snow
4:55 PM 31.8 °F 28.5 °F 26.4 °F 80% 30.24 in 7.0 mi East 3.5 mph - N/A   Overcast
5:15 PM 31.6 °F 28.3 °F 27.5 °F 85% 30.24 in 5.0 mi ESE 3.5 mph - N/A Snow Light Snow
5:35 PM 31.1 °F - 28.4 °F 90% 30.23 in 5.0 mi Calm Calm - N/A   Overcast
5:55 PM 31.1 °F 25.4 °F 29.1 °F 92% 30.23 in 5.0 mi ESE 5.8 mph - N/A   Overcast
6:15 PM 30.9 °F 26.2 °F 28.8 °F 92% 30.22 in 10.0 mi ESE 4.6 mph - N/A   Overcast
6:35 PM 31.1 °F 25.4 °F 28.9 °F 92% 30.23 in 10.0 mi ESE 5.8 mph - N/A   Overcast
6:55 PM 31.1 °F 25.4 °F 28.9 °F 92% 30.24 in 10.0 mi ESE 5.8 mph - N/A   Overcast
7:15 PM 31.1 °F 26.4 °F 28.9 °F 92% 30.24 in 10.0 mi ESE 4.6 mph - N/A   Overcast
7:35 PM 31.1 °F - 29.1 °F 92% 30.24 in 10.0 mi Calm Calm - N/A   Overcast
7:55 PM 31.1 °F 27.7 °F 28.9 °F 92% 30.24 in 10.0 mi SSE 3.5 mph - N/A   Overcast
8:15 PM 31.1 °F 25.4 °F 28.9 °F 92% 30.24 in 10.0 mi ESE 5.8 mph - N/A   Overcast
8:35 PM 31.1 °F - 29.1 °F 92% 30.25 in 7.0 mi Calm Calm - N/A   Overcast
8:55 PM 31.5 °F - 29.3 °F 92% 30.25 in 7.0 mi Calm Calm - N/A   Overcast
9:15 PM 31.5 °F 28.1 °F 29.7 °F 93% 30.24 in 7.0 mi SSE 3.5 mph - N/A   Overcast
9:35 PM 31.1 °F 26.4 °F 29.3 °F 93% 30.23 in 7.0 mi ESE 4.6 mph - N/A   Overcast
9:55 PM 31.5 °F 26.8 °F 29.8 °F 94% 30.22 in 5.0 mi ESE 4.6 mph - N/A   Overcast
10:15 PM 31.5 °F - 29.8 °F 94% 30.23 in 7.0 mi Calm Calm - N/A   Overcast
10:35 PM 31.6 °F 28.3 °F 30.0 °F 94% 30.25 in 7.0 mi South 3.5 mph - N/A   Overcast
10:55 PM 31.6 °F 28.3 °F 30.0 °F 94% 30.23 in 5.0 mi ESE 3.5 mph - N/A   Overcast
11:15 PM 31.5 °F - 30.2 °F 95% 30.23 in 4.0 mi Calm Calm - N/A   Overcast
11:35 PM 31.5 °F - 30.4 °F 96% 30.24 in 3.0 mi Calm Calm - N/A   Overcast
11:55 PM 31.3 °F - 30.7 °F 98% 30.23 in 2.5 mi Calm Calm - N/A   Overcast